Location: Roland
(31.1349°N, 85.4372°W)
Time: 13:13:40
(UTC+00:00)

Explorer 11/Cluster Stage 4 - Pass Details

Date: 24 April 2021
Orbit: 467 x 1257 km, 28.8° (Epoch: 15 May)

Event Time Altitude Azimuth Distance (km) Brightness Sun altitude
Exits shadow 09:14:50 16° 146° (SE) 1,321 7.8 -22.2°
Drops below altitude 10° 09:16:30 10° 118° (ESE) 1,610 8.6 -21.8°
Sets 09:19:15 0° 96° (E) 2,485 10.0 -21.3°
